Time,TemperatureF,DewpointF,PressureIn,WindDirection,WindDirectionDegrees,WindSpeedMPH,WindSpeedGustMPH,Humidity,HourlyPrecipIn,Conditions,Clouds,dailyrainin,SolarRadiationWatts/m^2,SoftwareType,DateUTC
2013-07-15 00:00:00,81.3,75.3,30.19,SW,230,0.0,1.0,82,0.00,,,0.00,0,WeatherCatV1.13B119,2013-07-15 04:00:00,
2013-07-15 00:05:00,81.2,75.2,30.19,SW,230,0.0,1.0,82,0.00,,,0.00,0,WeatherCatV1.13B119,2013-07-15 04:05:00,
2013-07-15 00:10:00,81.2,75.2,30.19,SW,230,0.0,0.0,82,0.00,,,0.00,0,WeatherCatV1.13B119,2013-07-15 04:10:00,
2013-07-15 00:15:00,81.0,75.0,30.19,SW,230,0.0,2.0,82,0.00,,,0.00,0,WeatherCatV1.13B119,2013-07-15 04:15:00,
2013-07-15 00:20:00,81.0,75.0,30.19,SW,230,0.0,1.0,82,0.00,,,0.00,0,WeatherCatV1.13B119,2013-07-15 04:20:00,
2013-07-15 00:25:00,80.9,74.9,30.18,SW,230,0.0,0.0,82,0.00,,,0.00,0,WeatherCatV1.13B119,2013-07-15 04:25:00,
2013-07-15 00:30:00,80.8,74.8,30.18,SW,230,0.0,2.0,82,0.00,,,0.00,0,WeatherCatV1.13B119,2013-07-15 04:30:00,
2013-07-15 00:35:00,80.7,74.7,30.18,SW,230,0.0,1.0,82,0.00,,,0.00,0,WeatherCatV1.13B119,2013-07-15 04:35:00,
2013-07-15 00:40:00,80.6,74.9,30.19,SW,230,0.0,0.0,83,0.00,,,0.00,0,WeatherCatV1.13B119,2013-07-15 04:40:00,
2013-07-15 00:45:00,80.5,74.8,30.19,SW,230,0.0,0.0,83,0.00,,,0.00,0,WeatherCatV1.13B119,2013-07-15 04:45:00,
2013-07-15 00:50:00,80.5,74.8,30.19,SW,230,0.0,3.0,83,0.00,,,0.00,0,WeatherCatV1.13B119,2013-07-15 04:50:00,
2013-07-15 00:55:00,80.3,74.6,30.18,SW,231,0.0,1.0,83,0.00,,,0.00,0,WeatherCatV1.13B119,2013-07-15 04:55:00,
2013-07-15 01:00:00,80.3,74.6,30.18,SW,230,0.0,0.0,83,0.00,,,0.00,0,WeatherCatV1.13B119,2013-07-15 05:00:00,
2013-07-15 01:05:00,80.3,74.6,30.18,SW,230,0.0,3.0,83,0.00,,,0.00,0,WeatherCatV1.13B119,2013-07-15 05:05:00,
2013-07-15 01:10:00,80.2,74.6,30.18,SW,231,0.0,1.0,83,0.00,,,0.00,0,WeatherCatV1.13B119,2013-07-15 05:10:00,
2013-07-15 01:15:00,80.1,74.5,30.18,SW,230,0.0,1.0,83,0.00,,,0.00,0,WeatherCatV1.13B119,2013-07-15 05:15:00,
2013-07-15 01:20:00,80.0,74.4,30.18,SW,231,1.0,6.0,83,0.00,,,0.00,0,WeatherCatV1.13B119,2013-07-15 05:20:00,
2013-07-15 01:25:00,80.0,74.4,30.18,SW,231,1.0,5.0,83,0.00,,,0.00,0,WeatherCatV1.13B119,2013-07-15 05:25:00,
2013-07-15 01:30:00,79.9,74.3,30.18,SW,231,1.0,0.0,83,0.00,,,0.00,0,WeatherCatV1.13B119,2013-07-15 05:30:00,
2013-07-15 01:35:00,79.9,74.3,30.18,SW,230,0.0,2.0,83,0.00,,,0.00,0,WeatherCatV1.13B119,2013-07-15 05:35:00,
2013-07-15 01:48:00,79.8,74.2,30.18,SW,231,0.0,0.0,83,0.00,,,0.00,0,WeatherCatV1.13B119,2013-07-15 05:48:00,
2013-07-15 01:53:00,79.9,74.3,30.18,SW,230,0.0,2.0,83,0.00,,,0.00,0,WeatherCatV1.13B119,2013-07-15 05:53:00,
2013-07-15 01:58:00,79.9,74.3,30.18,SW,230,0.0,5.0,83,0.00,,,0.00,0,WeatherCatV1.13B119,2013-07-15 05:58:00,
2013-07-15 02:03:00,80.0,74.4,30.18,SW,232,3.0,3.0,83,0.00,,,0.00,0,WeatherCatV1.13B119,2013-07-15 06:03:00,
2013-07-15 02:08:00,80.0,74.4,30.18,SW,231,0.0,1.0,83,0.00,,,0.00,0,WeatherCatV1.13B119,2013-07-15 06:08:00,
2013-07-15 02:13:00,80.1,74.5,30.18,SW,233,0.0,11.0,83,0.00,,,0.00,0,WeatherCatV1.13B119,2013-07-15 06:13:00,
2013-07-15 02:18:00,80.1,74.5,30.18,SW,234,0.0,5.0,83,0.00,,,0.00,0,WeatherCatV1.13B119,2013-07-15 06:18:00,
2013-07-15 02:23:00,80.1,74.5,30.18,SW,235,0.0,10.0,83,0.00,,,0.00,0,WeatherCatV1.13B119,2013-07-15 06:23:00,
2013-07-15 02:28:00,80.1,74.5,30.18,SW,236,1.0,10.0,83,0.00,,,0.00,0,WeatherCatV1.13B119,2013-07-15 06:28:00,
2013-07-15 02:33:00,80.1,74.5,30.18,SW,236,0.0,2.0,83,0.00,,,0.00,0,WeatherCatV1.13B119,2013-07-15 06:33:00,
2013-07-15 02:38:00,80.1,74.5,30.18,SW,236,0.0,2.0,83,0.00,,,0.00,0,WeatherCatV1.13B119,2013-07-15 06:38:00,
2013-07-15 02:43:00,80.1,74.8,30.18,SW,236,1.0,9.0,84,0.00,,,0.00,0,WeatherCatV1.13B119,2013-07-15 06:43:00,
2013-07-15 02:48:00,80.0,74.7,30.18,SW,236,0.0,6.0,84,0.00,,,0.00,0,WeatherCatV1.13B119,2013-07-15 06:48:00,
2013-07-15 02:53:00,80.0,74.7,30.18,SW,236,6.0,7.0,84,0.00,,,0.00,0,WeatherCatV1.13B119,2013-07-15 06:53:00,
2013-07-15 02:58:00,80.0,74.7,30.17,WSW,238,2.0,2.0,84,0.00,,,0.00,0,WeatherCatV1.13B119,2013-07-15 06:58:00,
2013-07-15 03:03:00,80.0,74.7,30.17,WSW,238,5.0,5.0,84,0.00,,,0.00,0,WeatherCatV1.13B119,2013-07-15 07:03:00,
2013-07-15 03:08:00,80.0,74.7,30.17,WSW,237,3.0,11.0,84,0.00,,,0.00,0,WeatherCatV1.13B119,2013-07-15 07:08:00,
2013-07-15 03:13:00,79.9,74.6,30.17,WSW,237,0.0,6.0,84,0.00,,,0.00,0,WeatherCatV1.13B119,2013-07-15 07:13:00,
2013-07-15 03:18:00,79.9,74.6,30.17,WSW,239,5.0,5.0,84,0.00,,,0.00,0,WeatherCatV1.13B119,2013-07-15 07:18:00,
2013-07-15 03:23:00,79.8,74.5,30.17,WSW,239,3.0,6.0,84,0.00,,,0.00,0,WeatherCatV1.13B119,2013-07-15 07:23:00,
2013-07-15 03:28:00,79.8,74.5,30.17,WSW,239,0.0,2.0,84,0.00,,,0.00,0,WeatherCatV1.13B119,2013-07-15 07:28:00,
2013-07-15 03:33:00,79.7,74.8,30.17,WSW,239,1.0,1.0,85,0.00,,,0.00,0,WeatherCatV1.13B119,2013-07-15 07:33:00,
2013-07-15 03:38:00,79.6,74.7,30.17,WSW,239,1.0,4.0,85,0.00,,,0.00,0,WeatherCatV1.13B119,2013-07-15 07:38:00,
2013-07-15 03:43:00,79.5,74.6,30.17,WSW,239,3.0,3.0,85,0.00,,,0.00,0,WeatherCatV1.13B119,2013-07-15 07:43:00,
2013-07-15 03:48:00,79.4,74.5,30.17,WSW,239,1.0,4.0,85,0.00,,,0.00,0,WeatherCatV1.13B119,2013-07-15 07:48:00,
2013-07-15 03:53:00,79.3,74.7,30.17,WSW,238,3.0,6.0,86,0.00,,,0.00,0,WeatherCatV1.13B119,2013-07-15 07:53:00,
2013-07-15 03:58:00,79.1,74.5,30.17,WSW,238,3.0,4.0,86,0.00,,,0.00,0,WeatherCatV1.13B119,2013-07-15 07:58:00,
2013-07-15 04:03:00,78.9,74.3,30.17,WSW,239,3.0,3.0,86,0.00,,,0.00,0,WeatherCatV1.13B119,2013-07-15 08:03:00,
2013-07-15 04:08:00,78.7,74.1,30.17,WSW,238,0.0,3.0,86,0.00,,,0.00,0,WeatherCatV1.13B119,2013-07-15 08:08:00,
2013-07-15 04:13:00,78.7,74.5,30.17,WSW,239,3.0,5.0,87,0.00,,,0.00,0,WeatherCatV1.13B119,2013-07-15 08:13:00,
2013-07-15 04:17:00,78.5,74.3,30.17,WSW,239,2.0,4.0,87,0.00,,,0.00,0,WeatherCatV1.13B119,2013-07-15 08:17:00,
2013-07-15 04:22:00,78.3,74.4,30.17,WSW,240,2.0,12.0,88,0.00,,,0.00,0,WeatherCatV1.13B119,2013-07-15 08:22:00,
2013-07-15 04:27:00,78.2,74.3,30.17,WSW,239,4.0,7.0,88,0.00,,,0.00,0,WeatherCatV1.13B119,2013-07-15 08:27:00,
2013-07-15 04:32:00,78.2,74.3,30.17,WSW,238,0.0,6.0,88,0.00,,,0.00,0,WeatherCatV1.13B119,2013-07-15 08:32:00,
2013-07-15 04:37:00,78.2,74.3,30.17,WSW,240,1.0,1.0,88,0.00,,,0.00,0,WeatherCatV1.13B119,2013-07-15 08:37:00,
2013-07-15 04:42:00,78.1,74.2,30.17,WSW,239,5.0,7.0,88,0.00,,,0.00,0,WeatherCatV1.13B119,2013-07-15 08:42:00,
2013-07-15 04:47:00,78.0,74.1,30.17,WSW,241,2.0,2.0,88,0.00,,,0.00,0,WeatherCatV1.13B119,2013-07-15 08:47:00,
2013-07-15 04:52:00,78.0,74.1,30.17,WSW,241,1.0,7.0,88,0.00,,,0.00,0,WeatherCatV1.13B119,2013-07-15 08:52:00,
2013-07-15 04:57:00,78.0,74.1,30.17,WSW,241,0.0,2.0,88,0.00,,,0.00,0,WeatherCatV1.13B119,2013-07-15 08:57:00,
2013-07-15 05:02:00,77.9,74.4,30.17,WSW,241,0.0,4.0,89,0.00,,,0.00,0,WeatherCatV1.13B119,2013-07-15 09:02:00,
2013-07-15 05:07:00,77.8,74.3,30.18,WSW,241,0.0,0.0,89,0.00,,,0.00,0,WeatherCatV1.13B119,2013-07-15 09:07:00,
2013-07-15 05:12:00,77.8,74.3,30.18,WSW,241,0.0,0.0,89,0.00,,,0.00,0,WeatherCatV1.13B119,2013-07-15 09:12:00,
2013-07-15 05:17:00,77.7,74.2,30.18,WSW,241,0.0,0.0,89,0.00,,,0.00,0,WeatherCatV1.13B119,2013-07-15 09:17:00,
2013-07-15 05:22:00,77.6,74.1,30.18,WSW,241,0.0,0.0,89,0.00,,,0.00,0,WeatherCatV1.13B119,2013-07-15 09:22:00,
2013-07-15 05:27:00,77.6,74.1,30.18,WSW,241,0.0,1.0,89,0.00,,,0.00,0,WeatherCatV1.13B119,2013-07-15 09:27:00,
2013-07-15 05:32:00,77.5,74.0,30.18,WSW,241,0.0,0.0,89,0.00,,,0.00,0,WeatherCatV1.13B119,2013-07-15 09:32:00,
2013-07-15 05:37:00,77.4,73.9,30.18,WSW,241,0.0,0.0,89,0.00,,,0.00,0,WeatherCatV1.13B119,2013-07-15 09:37:00,
2013-07-15 05:42:00,77.3,73.8,30.18,WSW,241,0.0,0.0,89,0.00,,,0.00,0,WeatherCatV1.13B119,2013-07-15 09:42:00,
2013-07-15 05:47:00,77.2,73.7,30.18,WSW,241,0.0,0.0,89,0.00,,,0.00,0,WeatherCatV1.13B119,2013-07-15 09:47:00,
2013-07-15 05:52:00,77.1,73.9,30.18,WSW,241,0.0,1.0,90,0.00,,,0.00,7,WeatherCatV1.13B119,2013-07-15 09:52:00,
2013-07-15 05:57:00,77.0,73.8,30.18,WSW,241,0.0,2.0,90,0.00,,,0.00,9,WeatherCatV1.13B119,2013-07-15 09:57:00,
2013-07-15 06:02:00,76.9,73.7,30.18,WSW,241,1.0,3.0,90,0.00,,,0.00,12,WeatherCatV1.13B119,2013-07-15 10:02:00,
2013-07-15 06:07:00,76.8,74.0,30.18,WSW,241,2.0,2.0,91,0.00,,,0.00,16,WeatherCatV1.13B119,2013-07-15 10:07:00,
2013-07-15 06:12:00,76.8,74.0,30.18,WSW,241,0.0,0.0,91,0.00,,,0.00,16,WeatherCatV1.13B119,2013-07-15 10:12:00,
2013-07-15 06:17:00,76.8,74.0,30.18,WSW,241,0.0,0.0,91,0.00,,,0.00,18,WeatherCatV1.13B119,2013-07-15 10:17:00,
2013-07-15 06:22:00,76.8,74.0,30.18,WSW,241,0.0,0.0,91,0.00,,,0.00,21,WeatherCatV1.13B119,2013-07-15 10:22:00,
2013-07-15 06:27:00,76.8,74.0,30.18,WSW,241,0.0,0.0,91,0.00,,,0.00,25,WeatherCatV1.13B119,2013-07-15 10:27:00,
2013-07-15 06:32:00,76.7,73.9,30.18,WSW,241,0.0,0.0,91,0.00,,,0.00,26,WeatherCatV1.13B119,2013-07-15 10:32:00,
2013-07-15 06:37:00,76.7,73.9,30.18,WSW,241,0.0,0.0,91,0.00,,,0.00,26,WeatherCatV1.13B119,2013-07-15 10:37:00,
2013-07-15 06:42:00,76.7,74.2,30.18,WSW,241,0.0,0.0,92,0.00,,,0.00,28,WeatherCatV1.13B119,2013-07-15 10:42:00,
2013-07-15 06:47:00,76.7,74.2,30.18,WSW,241,0.0,0.0,92,0.00,,,0.00,35,WeatherCatV1.13B119,2013-07-15 10:47:00,
2013-07-15 06:52:00,76.7,74.2,30.19,WSW,241,0.0,0.0,92,0.00,,,0.00,40,WeatherCatV1.13B119,2013-07-15 10:52:00,
2013-07-15 06:57:00,76.7,74.2,30.18,SW,232,1.0,5.0,92,0.00,,,0.00,35,WeatherCatV1.13B119,2013-07-15 10:57:00,
2013-07-15 07:02:00,76.7,74.2,30.18,SW,232,0.0,0.0,92,0.00,,,0.00,46,WeatherCatV1.13B119,2013-07-15 11:02:00,
2013-07-15 07:07:00,76.7,74.2,30.18,SW,232,0.0,4.0,92,0.00,,,0.00,58,WeatherCatV1.13B119,2013-07-15 11:07:00,
2013-07-15 07:12:00,76.8,74.3,30.18,SW,232,0.0,0.0,92,0.00,,,0.00,58,WeatherCatV1.13B119,2013-07-15 11:12:00,
2013-07-15 07:17:00,76.9,74.4,30.18,SW,232,0.0,0.0,92,0.00,,,0.00,62,WeatherCatV1.13B119,2013-07-15 11:17:00,
2013-07-15 07:22:00,77.0,74.5,30.19,SW,232,0.0,0.0,92,0.00,,,0.00,69,WeatherCatV1.13B119,2013-07-15 11:22:00,
2013-07-15 07:27:00,77.1,74.3,30.19,SW,232,0.0,0.0,91,0.00,,,0.00,72,WeatherCatV1.13B119,2013-07-15 11:27:00,
2013-07-15 07:32:00,77.3,74.5,30.18,SW,225,0.0,0.0,91,0.00,,,0.00,83,WeatherCatV1.13B119,2013-07-15 11:32:00,
2013-07-15 07:37:00,77.4,74.6,30.19,SW,232,0.0,0.0,91,0.00,,,0.00,60,WeatherCatV1.13B119,2013-07-15 11:37:00,
2013-07-15 07:42:00,77.5,74.7,30.19,SW,232,0.0,0.0,91,0.00,,,0.00,53,WeatherCatV1.13B119,2013-07-15 11:42:00,
2013-07-15 07:47:00,77.7,74.9,30.19,SW,229,0.0,0.0,91,0.00,,,0.00,49,WeatherCatV1.13B119,2013-07-15 11:47:00,
2013-07-15 07:52:00,77.8,75.0,30.18,SW,228,0.0,0.0,91,0.00,,,0.00,63,WeatherCatV1.13B119,2013-07-15 11:52:00,
2013-07-15 07:57:00,78.0,75.1,30.18,SW,232,0.0,0.0,91,0.00,,,0.00,63,WeatherCatV1.13B119,2013-07-15 11:57:00,
2013-07-15 08:02:00,78.2,75.3,30.18,SW,231,0.0,0.0,91,0.00,,,0.00,98,WeatherCatV1.13B119,2013-07-15 12:02:00,
2013-07-15 08:07:00,78.4,75.2,30.18,SW,230,0.0,0.0,90,0.00,,,0.00,285,WeatherCatV1.13B119,2013-07-15 12:07:00,
2013-07-15 08:12:00,78.7,75.2,30.18,SW,233,0.0,0.0,89,0.00,,,0.00,294,WeatherCatV1.13B119,2013-07-15 12:12:00,
2013-07-15 08:17:00,79.1,75.6,30.18,SW,232,0.0,1.0,89,0.00,,,0.00,306,WeatherCatV1.13B119,2013-07-15 12:17:00,
2013-07-15 08:22:00,79.6,75.4,30.18,SW,233,0.0,0.0,87,0.00,,,0.00,325,WeatherCatV1.13B119,2013-07-15 12:22:00,
2013-07-15 08:27:00,80.3,76.1,30.18,SW,233,0.0,1.0,87,0.00,,,0.00,343,WeatherCatV1.13B119,2013-07-15 12:27:00,
2013-07-15 08:32:00,81.0,76.4,30.18,SW,233,0.0,0.0,86,0.00,,,0.00,383,WeatherCatV1.13B119,2013-07-15 12:32:00,
2013-07-15 08:37:00,81.7,76.4,30.18,SW,233,0.0,0.0,84,0.00,,,0.00,427,WeatherCatV1.13B119,2013-07-15 12:37:00,
2013-07-15 08:42:00,82.5,76.4,30.18,SW,233,1.0,3.0,82,0.00,,,0.00,452,WeatherCatV1.13B119,2013-07-15 12:42:00,
2013-07-15 08:47:00,83.1,76.6,30.18,SW,233,0.0,0.0,81,0.00,,,0.00,97,WeatherCatV1.13B119,2013-07-15 12:47:00,
2013-07-15 08:52:00,83.4,76.6,30.18,SW,233,0.0,4.0,80,0.00,,,0.00,153,WeatherCatV1.13B119,2013-07-15 12:52:00,
2013-07-15 08:57:00,83.6,76.4,30.18,SW,233,4.0,4.0,79,0.00,,,0.00,137,WeatherCatV1.13B119,2013-07-15 12:57:00,
2013-07-15 09:02:00,83.8,76.6,30.18,SW,233,4.0,4.0,79,0.00,,,0.00,135,WeatherCatV1.13B119,2013-07-15 13:02:00,
2013-07-15 09:07:00,83.8,76.2,30.18,SW,233,0.0,2.0,78,0.00,,,0.00,151,WeatherCatV1.13B119,2013-07-15 13:07:00,
2013-07-15 09:12:00,84.0,76.8,30.18,SW,233,0.0,1.0,79,0.00,,,0.00,468,WeatherCatV1.13B119,2013-07-15 13:12:00,
2013-07-15 09:17:00,84.5,76.5,30.17,SW,232,0.0,2.0,77,0.00,,,0.00,483,WeatherCatV1.13B119,2013-07-15 13:17:00,
2013-07-15 09:22:00,85.1,77.1,30.18,SW,232,0.0,0.0,77,0.00,,,0.00,503,WeatherCatV1.13B119,2013-07-15 13:22:00,
2013-07-15 09:27:00,85.8,77.7,30.17,SW,232,3.0,3.0,77,0.00,,,0.00,515,WeatherCatV1.13B119,2013-07-15 13:27:00,
2013-07-15 09:32:00,86.4,77.9,30.17,SW,233,9.0,9.0,76,0.00,,,0.00,527,WeatherCatV1.13B119,2013-07-15 13:32:00,
2013-07-15 09:37:00,86.9,77.6,30.17,SW,233,4.0,4.0,74,0.00,,,0.00,543,WeatherCatV1.13B119,2013-07-15 13:37:00,
2013-07-15 09:42:00,87.2,77.5,30.17,SW,234,6.0,7.0,73,0.00,,,0.00,554,WeatherCatV1.13B119,2013-07-15 13:42:00,
2013-07-15 09:47:00,87.3,77.1,30.17,SW,234,3.0,7.0,72,0.00,,,0.00,570,WeatherCatV1.13B119,2013-07-15 13:47:00,
2013-07-15 09:52:00,87.6,77.4,30.17,SW,234,0.0,6.0,72,0.00,,,0.00,582,WeatherCatV1.13B119,2013-07-15 13:52:00,
2013-07-15 09:57:00,88.1,77.9,30.17,SW,234,1.0,1.0,72,0.00,,,0.00,598,WeatherCatV1.13B119,2013-07-15 13:57:00,
2013-07-15 10:02:00,88.4,77.8,30.17,SW,234,5.0,6.0,71,0.00,,,0.00,613,WeatherCatV1.13B119,2013-07-15 14:02:00,
2013-07-15 10:07:00,88.6,77.5,30.17,SW,234,3.0,6.0,70,0.00,,,0.00,626,WeatherCatV1.13B119,2013-07-15 14:07:00,
2013-07-15 10:12:00,88.7,77.6,30.17,SW,235,4.0,8.0,70,0.00,,,0.00,636,WeatherCatV1.13B119,2013-07-15 14:12:00,
2013-07-15 10:17:00,89.0,78.3,30.16,WSW,241,4.0,13.0,71,0.00,,,0.00,643,WeatherCatV1.13B119,2013-07-15 14:17:00,
2013-07-15 10:22:00,89.2,77.7,30.16,WSW,241,0.0,3.0,69,0.00,,,0.00,654,WeatherCatV1.13B119,2013-07-15 14:22:00,
2013-07-15 10:27:00,89.7,78.6,30.16,WSW,241,6.0,9.0,70,0.00,,,0.00,666,WeatherCatV1.13B119,2013-07-15 14:27:00,
2013-07-15 10:32:00,90.2,79.1,30.16,WSW,241,5.0,7.0,70,0.00,,,0.00,679,WeatherCatV1.13B119,2013-07-15 14:32:00,
2013-07-15 10:37:00,90.6,78.6,30.16,WSW,241,3.0,11.0,68,0.00,,,0.00,691,WeatherCatV1.13B119,2013-07-15 14:37:00,
2013-07-15 10:42:00,90.7,78.2,30.16,WSW,241,1.0,6.0,67,0.00,,,0.00,700,WeatherCatV1.13B119,2013-07-15 14:42:00,
2013-07-15 10:47:00,90.5,78.5,30.16,WSW,246,4.0,9.0,68,0.00,,,0.00,707,WeatherCatV1.13B119,2013-07-15 14:47:00,
2013-07-15 10:50:00,90.5,78.9,30.15,WSW,245,6.0,11.0,69,0.00,,,0.00,715,WeatherCatV1.13B119,2013-07-15 14:50:00,
2013-07-15 10:55:00,90.6,78.6,30.15,WSW,245,7.0,10.0,68,0.00,,,0.00,728,WeatherCatV1.13B119,2013-07-15 14:55:00,
2013-07-15 11:00:00,90.7,78.6,30.15,WSW,246,5.0,7.0,68,0.00,,,0.00,737,WeatherCatV1.13B119,2013-07-15 15:00:00,
2013-07-15 11:05:00,91.2,78.7,30.15,WSW,246,3.0,3.0,67,0.00,,,0.00,745,WeatherCatV1.13B119,2013-07-15 15:05:00,
2013-07-15 11:10:00,91.6,79.5,30.15,WSW,246,2.0,5.0,68,0.00,,,0.00,756,WeatherCatV1.13B119,2013-07-15 15:10:00,
2013-07-15 11:15:00,91.8,78.8,30.15,WSW,251,6.0,13.0,66,0.00,,,0.00,763,WeatherCatV1.13B119,2013-07-15 15:15:00,
2013-07-15 11:20:00,91.8,79.2,30.15,WSW,254,0.0,5.0,67,0.00,,,0.00,772,WeatherCatV1.13B119,2013-07-15 15:20:00,
2013-07-15 11:25:00,91.8,78.8,30.15,WSW,255,6.0,10.0,66,0.00,,,0.00,780,WeatherCatV1.13B119,2013-07-15 15:25:00,
2013-07-15 11:26:00,91.8,79.2,30.15,WSW,255,1.0,7.0,67,0.00,,,0.00,780,WeatherCatV1.13B119,2013-07-15 15:26:00,
2013-07-15 11:31:00,92.2,79.6,30.15,WSW,255,1.0,8.0,67,0.00,,,0.00,789,WeatherCatV1.13B119,2013-07-15 15:31:00,
2013-07-15 11:36:00,92.6,79.5,30.15,WSW,256,0.0,12.0,66,0.00,,,0.00,796,WeatherCatV1.13B119,2013-07-15 15:36:00,
2013-07-15 11:41:00,92.6,80.0,30.15,WSW,256,1.0,9.0,67,0.00,,,0.00,802,WeatherCatV1.13B119,2013-07-15 15:41:00,
2013-07-15 11:46:00,92.8,79.3,30.15,WSW,256,0.0,4.0,65,0.00,,,0.00,809,WeatherCatV1.13B119,2013-07-15 15:46:00,
2013-07-15 11:51:00,92.9,78.9,30.15,WSW,258,6.0,11.0,64,0.00,,,0.00,814,WeatherCatV1.13B119,2013-07-15 15:51:00,
2013-07-15 11:56:00,92.6,79.5,30.15,WSW,258,0.0,7.0,66,0.00,,,0.00,823,WeatherCatV1.13B119,2013-07-15 15:56:00,
2013-07-15 12:01:00,92.9,79.8,30.15,West,259,4.0,6.0,66,0.00,,,0.00,830,WeatherCatV1.13B119,2013-07-15 16:01:00,
2013-07-15 12:06:00,93.0,79.0,30.15,WSW,258,4.0,10.0,64,0.00,,,0.00,835,WeatherCatV1.13B119,2013-07-15 16:06:00,
2013-07-15 12:11:00,92.8,78.8,30.15,West,259,1.0,4.0,64,0.00,,,0.00,837,WeatherCatV1.13B119,2013-07-15 16:11:00,
2013-07-15 12:16:00,92.8,78.8,30.15,West,259,7.0,7.0,64,0.00,,,0.00,844,WeatherCatV1.13B119,2013-07-15 16:16:00,
2013-07-15 12:21:00,92.9,79.4,30.14,West,259,1.0,3.0,65,0.00,,,0.00,874,WeatherCatV1.13B119,2013-07-15 16:21:00,
2013-07-15 12:26:00,93.5,79.9,30.14,WSW,257,2.0,3.0,65,0.00,,,0.00,921,WeatherCatV1.13B119,2013-07-15 16:26:00,
2013-07-15 12:31:00,93.7,79.2,30.14,WSW,257,0.0,3.0,63,0.00,,,0.00,965,WeatherCatV1.13B119,2013-07-15 16:31:00,
2013-07-15 12:36:00,93.8,79.2,30.14,WSW,257,3.0,3.0,63,0.00,,,0.00,200,WeatherCatV1.13B119,2013-07-15 16:36:00,
2013-07-15 12:41:00,93.8,78.8,30.14,WSW,257,7.0,7.0,62,0.00,,,0.00,200,WeatherCatV1.13B119,2013-07-15 16:41:00,
2013-07-15 12:46:00,93.5,79.4,30.14,WSW,257,5.0,5.0,64,0.00,,,0.00,926,WeatherCatV1.13B119,2013-07-15 16:46:00,
2013-07-15 12:51:00,93.5,78.5,30.14,WSW,256,6.0,10.0,62,0.00,,,0.00,954,WeatherCatV1.13B119,2013-07-15 16:51:00,
2013-07-15 12:56:00,93.6,78.6,30.13,WSW,257,2.0,6.0,62,0.00,,,0.00,244,WeatherCatV1.13B119,2013-07-15 16:56:00,
2013-07-15 13:01:00,93.3,78.8,30.14,West,259,0.0,10.0,63,0.00,,,0.00,135,WeatherCatV1.13B119,2013-07-15 17:01:00,
2013-07-15 13:06:00,93.2,77.2,30.14,WNW,285,1.0,8.0,60,0.00,,,0.00,230,WeatherCatV1.13B119,2013-07-15 17:06:00,
2013-07-15 13:11:00,92.9,76.9,30.13,WNW,286,0.0,6.0,60,0.00,,,0.00,990,WeatherCatV1.13B119,2013-07-15 17:11:00,
2013-07-15 13:16:00,93.1,77.6,30.13,WNW,286,2.0,6.0,61,0.00,,,0.00,944,WeatherCatV1.13B119,2013-07-15 17:16:00,
2013-07-15 13:21:00,93.3,77.8,30.13,WNW,285,3.0,6.0,61,0.00,,,0.00,1034,WeatherCatV1.13B119,2013-07-15 17:21:00,
2013-07-15 13:25:00,93.5,78.5,30.13,WNW,286,5.0,9.0,62,0.00,,,0.00,970,WeatherCatV1.13B119,2013-07-15 17:25:00,
2013-07-15 13:30:00,93.9,78.4,30.13,WNW,290,4.0,11.0,61,0.00,,,0.00,1039,WeatherCatV1.13B119,2013-07-15 17:30:00,
2013-07-15 13:35:00,94.7,79.6,30.13,WNW,289,2.0,2.0,62,0.00,,,0.00,1046,WeatherCatV1.13B119,2013-07-15 17:35:00,
2013-07-15 13:40:00,94.8,78.7,30.12,WNW,290,5.0,11.0,60,0.00,,,0.00,369,WeatherCatV1.13B119,2013-07-15 17:40:00,
2013-07-15 13:45:00,94.4,78.3,30.12,NW,305,10.0,11.0,60,0.00,,,0.00,359,WeatherCatV1.13B119,2013-07-15 17:45:00,
2013-07-15 13:50:00,94.1,78.5,30.12,NW,305,4.0,10.0,61,0.00,,,0.00,807,WeatherCatV1.13B119,2013-07-15 17:50:00,
2013-07-15 13:55:00,93.8,79.2,30.12,NW,304,4.0,7.0,63,0.00,,,0.00,976,WeatherCatV1.13B119,2013-07-15 17:55:00,
2013-07-15 14:00:00,93.9,79.3,30.12,NW,304,5.0,7.0,63,0.00,,,0.00,308,WeatherCatV1.13B119,2013-07-15 18:00:00,
2013-07-15 14:05:00,93.8,79.7,30.12,NW,305,3.0,6.0,64,0.00,,,0.00,383,WeatherCatV1.13B119,2013-07-15 18:05:00,
2013-07-15 14:10:00,93.8,79.2,30.12,NW,305,5.0,12.0,63,0.00,,,0.00,958,WeatherCatV1.13B119,2013-07-15 18:10:00,
2013-07-15 14:15:00,93.7,78.2,30.12,NW,311,2.0,10.0,61,0.00,,,0.00,793,WeatherCatV1.13B119,2013-07-15 18:15:00,
2013-07-15 14:20:00,93.6,79.1,30.12,NNW,346,2.0,5.0,63,0.00,,,0.00,884,WeatherCatV1.13B119,2013-07-15 18:20:00,
2013-07-15 14:25:00,93.5,79.0,30.12,NNW,346,4.0,9.0,63,0.00,,,0.00,243,WeatherCatV1.13B119,2013-07-15 18:25:00,
2013-07-15 14:30:00,93.7,79.6,30.12,NNW,346,0.0,3.0,64,0.00,,,0.00,243,WeatherCatV1.13B119,2013-07-15 18:30:00,
2013-07-15 14:35:00,93.9,79.3,30.11,NNW,346,5.0,6.0,63,0.00,,,0.00,185,WeatherCatV1.13B119,2013-07-15 18:35:00,
2013-07-15 14:40:00,94.0,80.4,30.11,NNW,347,7.0,8.0,65,0.00,,,0.00,861,WeatherCatV1.13B119,2013-07-15 18:40:00,
2013-07-15 14:45:00,93.9,79.8,30.11,NNW,348,1.0,4.0,64,0.00,,,0.00,854,WeatherCatV1.13B119,2013-07-15 18:45:00,
2013-07-15 14:50:00,94.2,80.1,30.11,NNW,348,1.0,7.0,64,0.00,,,0.00,842,WeatherCatV1.13B119,2013-07-15 18:50:00,
2013-07-15 14:55:00,94.2,79.6,30.11,NNW,348,3.0,7.0,63,0.00,,,0.00,821,WeatherCatV1.13B119,2013-07-15 18:55:00,
2013-07-15 15:00:00,94.2,79.6,30.11,NNW,348,1.0,6.0,63,0.00,,,0.00,861,WeatherCatV1.13B119,2013-07-15 19:00:00,
2013-07-15 15:05:00,94.7,80.1,30.11,NNW,348,2.0,4.0,63,0.00,,,0.00,865,WeatherCatV1.13B119,2013-07-15 19:05:00,
2013-07-15 15:10:00,94.6,79.0,30.11,NNW,348,1.0,5.0,61,0.00,,,0.00,202,WeatherCatV1.13B119,2013-07-15 19:10:00,
2013-07-15 15:15:00,94.3,79.2,30.11,NNW,348,4.0,9.0,62,0.00,,,0.00,248,WeatherCatV1.13B119,2013-07-15 19:15:00,
2013-07-15 15:20:00,94.0,78.9,30.10,NNW,348,0.0,6.0,62,0.00,,,0.00,285,WeatherCatV1.13B119,2013-07-15 19:20:00,
2013-07-15 15:25:00,93.9,78.9,30.10,NNW,348,1.0,6.0,62,0.00,,,0.00,243,WeatherCatV1.13B119,2013-07-15 19:25:00,
2013-07-15 15:30:00,93.7,79.2,30.10,NNW,345,2.0,8.0,63,0.00,,,0.00,148,WeatherCatV1.13B119,2013-07-15 19:30:00,
2013-07-15 15:35:00,93.2,78.7,30.10,NNW,344,3.0,10.0,63,0.00,,,0.00,128,WeatherCatV1.13B119,2013-07-15 19:35:00,
2013-07-15 15:40:00,92.9,79.4,30.10,NNW,348,1.0,4.0,65,0.00,,,0.00,735,WeatherCatV1.13B119,2013-07-15 19:40:00,
2013-07-15 15:45:00,93.0,79.9,30.10,NNW,348,5.0,8.0,66,0.00,,,0.00,693,WeatherCatV1.13B119,2013-07-15 19:45:00,
2013-07-15 15:50:00,93.4,79.8,30.10,NNW,348,5.0,6.0,65,0.00,,,0.00,686,WeatherCatV1.13B119,2013-07-15 19:50:00,
2013-07-15 15:55:00,93.8,80.2,30.09,NNW,348,3.0,4.0,65,0.00,,,0.00,671,WeatherCatV1.13B119,2013-07-15 19:55:00,
2013-07-15 16:00:00,94.0,78.9,30.09,NNW,348,0.0,4.0,62,0.00,,,0.00,680,WeatherCatV1.13B119,2013-07-15 20:00:00,
2013-07-15 16:05:00,94.5,79.4,30.09,NNW,348,3.0,6.0,62,0.00,,,0.00,701,WeatherCatV1.13B119,2013-07-15 20:05:00,
2013-07-15 16:10:00,94.9,79.8,30.09,NNW,347,2.0,3.0,62,0.00,,,0.00,664,WeatherCatV1.13B119,2013-07-15 20:10:00,
2013-07-15 16:15:00,95.1,78.5,30.09,NNW,334,9.0,9.0,59,0.00,,,0.00,626,WeatherCatV1.13B119,2013-07-15 20:15:00,
2013-07-15 16:20:00,95.2,78.0,30.09,NNW,340,4.0,11.0,58,0.00,,,0.00,610,WeatherCatV1.13B119,2013-07-15 20:20:00,
2013-07-15 16:25:00,94.9,77.2,30.09,NNW,346,1.0,7.0,57,0.00,,,0.00,598,WeatherCatV1.13B119,2013-07-15 20:25:00,
2013-07-15 16:30:00,95.1,77.9,30.09,NNW,342,4.0,11.0,58,0.00,,,0.00,589,WeatherCatV1.13B119,2013-07-15 20:30:00,
2013-07-15 16:35:00,95.3,77.6,30.09,NNW,342,10.0,10.0,57,0.00,,,0.00,573,WeatherCatV1.13B119,2013-07-15 20:35:00,
2013-07-15 16:40:00,95.2,78.0,30.09,NNW,338,6.0,13.0,58,0.00,,,0.00,561,WeatherCatV1.13B119,2013-07-15 20:40:00,
2013-07-15 16:45:00,94.9,78.3,30.09,NNW,344,0.0,4.0,59,0.00,,,0.00,559,WeatherCatV1.13B119,2013-07-15 20:45:00,
2013-07-15 16:50:00,94.7,78.1,30.09,NNW,343,1.0,5.0,59,0.00,,,0.00,504,WeatherCatV1.13B119,2013-07-15 20:50:00,
2013-07-15 16:55:00,94.8,78.2,30.08,NNW,340,6.0,9.0,59,0.00,,,0.00,529,WeatherCatV1.13B119,2013-07-15 20:55:00,
2013-07-15 17:00:00,94.8,78.2,30.08,NNW,340,4.0,7.0,59,0.00,,,0.00,506,WeatherCatV1.13B119,2013-07-15 21:00:00,
2013-07-15 17:05:00,94.8,77.1,30.08,NNW,348,2.0,7.0,57,0.00,,,0.00,494,WeatherCatV1.13B119,2013-07-15 21:05:00,
2013-07-15 17:10:00,94.8,77.1,30.08,NNW,333,9.0,16.0,57,0.00,,,0.00,483,WeatherCatV1.13B119,2013-07-15 21:10:00,
2013-07-15 17:15:00,94.7,76.5,30.08,NNW,330,5.0,11.0,56,0.00,,,0.00,466,WeatherCatV1.13B119,2013-07-15 21:15:00,
2013-07-15 17:20:00,94.8,76.6,30.08,NNW,334,5.0,11.0,56,0.00,,,0.00,454,WeatherCatV1.13B119,2013-07-15 21:20:00,
2013-07-15 17:25:00,94.6,76.4,30.08,NNW,338,2.0,6.0,56,0.00,,,0.00,436,WeatherCatV1.13B119,2013-07-15 21:25:00,
2013-07-15 17:30:00,94.5,76.3,30.08,NNW,331,4.0,11.0,56,0.00,,,0.00,415,WeatherCatV1.13B119,2013-07-15 21:30:00,
2013-07-15 17:35:00,94.5,76.3,30.08,NNW,333,4.0,12.0,56,0.00,,,0.00,401,WeatherCatV1.13B119,2013-07-15 21:35:00,
2013-07-15 17:40:00,94.5,76.3,30.08,NNW,333,7.0,7.0,56,0.00,,,0.00,388,WeatherCatV1.13B119,2013-07-15 21:40:00,
2013-07-15 17:45:00,94.5,76.3,30.08,NNW,334,4.0,7.0,56,0.00,,,0.00,373,WeatherCatV1.13B119,2013-07-15 21:45:00,
2013-07-15 17:50:00,94.4,76.8,30.08,NNW,335,0.0,5.0,57,0.00,,,0.00,366,WeatherCatV1.13B119,2013-07-15 21:50:00,
2013-07-15 17:55:00,94.4,76.8,30.08,NNW,335,2.0,5.0,57,0.00,,,0.00,350,WeatherCatV1.13B119,2013-07-15 21:55:00,
2013-07-15 18:00:00,94.3,76.7,30.08,NNW,337,3.0,9.0,57,0.00,,,0.00,334,WeatherCatV1.13B119,2013-07-15 22:00:00,
2013-07-15 18:05:00,94.1,76.0,30.08,NNW,342,2.0,7.0,56,0.00,,,0.00,316,WeatherCatV1.13B119,2013-07-15 22:05:00,
2013-07-15 18:10:00,94.1,76.0,30.08,NNW,338,3.0,7.0,56,0.00,,,0.00,302,WeatherCatV1.13B119,2013-07-15 22:10:00,
2013-07-15 18:15:00,94.1,76.5,30.08,NNW,340,5.0,7.0,57,0.00,,,0.00,281,WeatherCatV1.13B119,2013-07-15 22:15:00,
2013-07-15 18:20:00,94.2,77.1,30.08,NNW,340,9.0,9.0,58,0.00,,,0.00,269,WeatherCatV1.13B119,2013-07-15 22:20:00,
2013-07-15 18:25:00,94.1,76.5,30.07,NNW,341,0.0,5.0,57,0.00,,,0.00,251,WeatherCatV1.13B119,2013-07-15 22:25:00,
2013-07-15 18:30:00,94.1,76.5,30.08,NNW,342,3.0,9.0,57,0.00,,,0.00,243,WeatherCatV1.13B119,2013-07-15 22:30:00,
2013-07-15 18:35:00,94.0,76.9,30.07,NNW,342,0.0,5.0,58,0.00,,,0.00,230,WeatherCatV1.13B119,2013-07-15 22:35:00,
2013-07-15 18:40:00,93.8,77.3,30.07,NNW,341,0.0,0.0,59,0.00,,,0.00,213,WeatherCatV1.13B119,2013-07-15 22:40:00,
2013-07-15 18:45:00,93.9,77.3,30.07,NNW,341,0.0,6.0,59,0.00,,,0.00,197,WeatherCatV1.13B119,2013-07-15 22:45:00,
2013-07-15 18:50:00,93.8,77.3,30.07,NNW,342,2.0,2.0,59,0.00,,,0.00,178,WeatherCatV1.13B119,2013-07-15 22:50:00,
2013-07-15 18:55:00,93.6,77.1,30.07,NNW,342,3.0,7.0,59,0.00,,,0.00,151,WeatherCatV1.13B119,2013-07-15 22:55:00,
2013-07-15 19:00:00,93.4,76.9,30.08,NNW,342,3.0,6.0,59,0.00,,,0.00,58,WeatherCatV1.13B119,2013-07-15 23:00:00,
2013-07-15 19:05:00,93.0,76.5,30.08,NNW,342,3.0,6.0,59,0.00,,,0.00,46,WeatherCatV1.13B119,2013-07-15 23:05:00,
2013-07-15 19:10:00,92.7,76.7,30.08,NNW,342,3.0,4.0,60,0.00,,,0.00,47,WeatherCatV1.13B119,2013-07-15 23:10:00,
2013-07-15 19:15:00,92.4,77.0,30.08,NNW,342,2.0,5.0,61,0.00,,,0.00,76,WeatherCatV1.13B119,2013-07-15 23:15:00,
2013-07-15 19:20:00,92.2,76.8,30.08,NNW,342,3.0,5.0,61,0.00,,,0.00,109,WeatherCatV1.13B119,2013-07-15 23:20:00,
2013-07-15 19:25:00,91.9,76.0,30.08,NNW,342,1.0,4.0,60,0.00,,,0.00,90,WeatherCatV1.13B119,2013-07-15 23:25:00,
2013-07-15 19:30:00,91.8,76.4,30.08,NNW,342,3.0,3.0,61,0.00,,,0.00,67,WeatherCatV1.13B119,2013-07-15 23:30:00,
2013-07-15 19:35:00,91.5,76.6,30.08,NNW,342,0.0,1.0,62,0.00,,,0.00,69,WeatherCatV1.13B119,2013-07-15 23:35:00,
2013-07-15 19:40:00,91.4,77.0,30.08,NNW,341,0.0,0.0,63,0.00,,,0.00,86,WeatherCatV1.13B119,2013-07-15 23:40:00,
2013-07-15 19:45:00,91.2,76.8,30.08,NNW,342,0.0,2.0,63,0.00,,,0.00,72,WeatherCatV1.13B119,2013-07-15 23:45:00,
2013-07-15 19:50:00,91.0,77.1,30.08,NNW,342,0.0,0.0,64,0.00,,,0.00,42,WeatherCatV1.13B119,2013-07-15 23:50:00,
2013-07-15 19:55:00,90.8,76.4,30.08,NNW,342,0.0,1.0,63,0.00,,,0.00,39,WeatherCatV1.13B119,2013-07-15 23:55:00,
2013-07-15 20:00:00,90.6,77.2,30.08,NNW,342,0.0,1.0,65,0.00,,,0.00,30,WeatherCatV1.13B119,2013-07-16 00:00:00,
2013-07-15 20:05:00,90.4,77.0,30.08,NNW,336,0.0,1.0,65,0.00,,,0.00,23,WeatherCatV1.13B119,2013-07-16 00:05:00,
2013-07-15 20:10:00,90.2,77.3,30.08,NNW,342,0.0,0.0,66,0.00,,,0.00,18,WeatherCatV1.13B119,2013-07-16 00:10:00,
2013-07-15 20:15:00,89.9,77.4,30.08,NNW,341,0.0,0.0,67,0.00,,,0.00,12,WeatherCatV1.13B119,2013-07-16 00:15:00,
2013-07-15 20:20:00,89.7,77.2,30.08,NNW,342,0.0,0.0,67,0.00,,,0.00,7,WeatherCatV1.13B119,2013-07-16 00:20:00,
2013-07-15 20:25:00,89.5,77.5,30.08,NNW,342,0.0,0.0,68,0.00,,,0.00,5,WeatherCatV1.13B119,2013-07-16 00:25:00,
2013-07-15 20:30:00,89.3,77.8,30.08,NNW,342,0.0,0.0,69,0.00,,,0.00,5,WeatherCatV1.13B119,2013-07-16 00:30:00,
2013-07-15 20:35:00,89.1,77.6,30.08,NNW,341,0.0,0.0,69,0.00,,,0.00,5,WeatherCatV1.13B119,2013-07-16 00:35:00,
2013-07-15 20:40:00,89.0,77.9,30.08,NNW,341,0.0,0.0,70,0.00,,,0.00,0,WeatherCatV1.13B119,2013-07-16 00:40:00,
2013-07-15 20:45:00,88.6,77.5,30.08,NNW,341,0.0,0.0,70,0.00,,,0.00,0,WeatherCatV1.13B119,2013-07-16 00:45:00,
2013-07-15 20:50:00,88.3,77.2,30.08,NNW,341,0.0,0.0,70,0.00,,,0.00,0,WeatherCatV1.13B119,2013-07-16 00:50:00,
2013-07-15 20:55:00,88.1,77.5,30.08,NNW,341,0.0,0.0,71,0.00,,,0.00,0,WeatherCatV1.13B119,2013-07-16 00:55:00,
2013-07-15 21:00:00,87.8,77.6,30.08,NNW,341,0.0,0.0,72,0.00,,,0.00,0,WeatherCatV1.13B119,2013-07-16 01:00:00,
2013-07-15 21:05:00,87.4,77.2,30.09,NNW,341,0.0,0.0,72,0.00,,,0.00,0,WeatherCatV1.13B119,2013-07-16 01:05:00,
2013-07-15 21:10:00,87.1,77.4,30.09,NNW,341,0.0,0.0,73,0.00,,,0.00,0,WeatherCatV1.13B119,2013-07-16 01:10:00,
2013-07-15 21:23:00,86.9,77.2,30.09,NNW,341,0.0,0.0,73,0.00,,,0.00,0,WeatherCatV1.13B119,2013-07-16 01:23:00,
2013-07-15 21:28:00,86.4,77.5,30.09,NNW,329,0.0,0.0,75,0.00,,,0.00,0,WeatherCatV1.13B119,2013-07-16 01:28:00,
2013-07-15 21:33:00,86.2,77.3,30.09,NNW,330,0.0,0.0,75,0.00,,,0.00,0,WeatherCatV1.13B119,2013-07-16 01:33:00,
2013-07-15 21:38:00,86.0,77.1,30.09,NNW,331,0.0,0.0,75,0.00,,,0.00,0,WeatherCatV1.13B119,2013-07-16 01:38:00,
2013-07-15 21:43:00,85.8,77.3,30.10,NNW,333,0.0,0.0,76,0.00,,,0.00,0,WeatherCatV1.13B119,2013-07-16 01:43:00,
2013-07-15 21:48:00,85.6,77.1,30.10,NNW,335,0.0,0.0,76,0.00,,,0.00,0,WeatherCatV1.13B119,2013-07-16 01:48:00,
2013-07-15 21:53:00,85.4,76.9,30.10,NNW,334,0.0,0.0,76,0.00,,,0.00,0,WeatherCatV1.13B119,2013-07-16 01:53:00,
2013-07-15 21:58:00,85.2,77.1,30.10,NNW,335,0.0,1.0,77,0.00,,,0.00,0,WeatherCatV1.13B119,2013-07-16 01:58:00,
2013-07-15 22:03:00,84.9,76.9,30.10,NNW,334,0.0,0.0,77,0.00,,,0.00,0,WeatherCatV1.13B119,2013-07-16 02:03:00,
2013-07-15 22:08:00,84.7,76.7,30.10,NNW,334,1.0,1.0,77,0.00,,,0.00,0,WeatherCatV1.13B119,2013-07-16 02:08:00,
2013-07-15 22:13:00,84.5,76.5,30.09,NNW,334,0.0,0.0,77,0.00,,,0.00,0,WeatherCatV1.13B119,2013-07-16 02:13:00,
2013-07-15 22:18:00,84.4,76.4,30.10,NNW,333,1.0,2.0,77,0.00,,,0.00,0,WeatherCatV1.13B119,2013-07-16 02:18:00,
2013-07-15 22:23:00,84.3,75.9,30.10,NNW,334,0.0,2.0,76,0.00,,,0.00,0,WeatherCatV1.13B119,2013-07-16 02:23:00,
2013-07-15 22:28:00,84.1,75.7,30.10,NNW,333,0.0,0.0,76,0.00,,,0.00,0,WeatherCatV1.13B119,2013-07-16 02:28:00,
2013-07-15 22:33:00,84.1,75.7,30.10,NNW,333,0.0,1.0,76,0.00,,,0.00,0,WeatherCatV1.13B119,2013-07-16 02:33:00,
2013-07-15 22:38:00,84.0,75.2,30.10,NNW,333,0.0,2.0,75,0.00,,,0.00,0,WeatherCatV1.13B119,2013-07-16 02:38:00,
2013-07-15 22:43:00,84.0,75.2,30.10,NNW,333,0.0,0.0,75,0.00,,,0.00,0,WeatherCatV1.13B119,2013-07-16 02:43:00,
2013-07-15 22:48:00,83.9,75.5,30.10,NNW,331,0.0,0.0,76,0.00,,,0.00,0,WeatherCatV1.13B119,2013-07-16 02:48:00,
2013-07-15 22:53:00,83.8,75.4,30.10,NW,326,0.0,0.0,76,0.00,,,0.00,0,WeatherCatV1.13B119,2013-07-16 02:53:00,
2013-07-15 22:58:00,83.7,75.3,30.10,NW,325,0.0,0.0,76,0.00,,,0.00,0,WeatherCatV1.13B119,2013-07-16 02:58:00,
2013-07-15 23:03:00,83.6,75.2,30.10,NW,319,0.0,0.0,76,0.00,,,0.00,0,WeatherCatV1.13B119,2013-07-16 03:03:00,
2013-07-15 23:08:00,83.5,75.1,30.10,WNW,303,0.0,0.0,76,0.00,,,0.00,0,WeatherCatV1.13B119,2013-07-16 03:08:00,
2013-07-15 23:13:00,83.4,75.0,30.10,WNW,296,0.0,0.0,76,0.00,,,0.00,0,WeatherCatV1.13B119,2013-07-16 03:13:00,
2013-07-15 23:18:00,83.3,75.3,30.10,WNW,296,0.0,1.0,77,0.00,,,0.00,0,WeatherCatV1.13B119,2013-07-16 03:18:00,
2013-07-15 23:23:00,83.1,75.1,30.10,WNW,301,0.0,0.0,77,0.00,,,0.00,0,WeatherCatV1.13B119,2013-07-16 03:23:00,
2013-07-15 23:28:00,82.9,74.9,30.10,WNW,303,0.0,0.0,77,0.00,,,0.00,0,WeatherCatV1.13B119,2013-07-16 03:28:00,
2013-07-15 23:33:00,82.8,74.8,30.10,WNW,298,2.0,2.0,77,0.00,,,0.00,0,WeatherCatV1.13B119,2013-07-16 03:33:00,
2013-07-15 23:38:00,82.7,74.7,30.10,WNW,300,0.0,3.0,77,0.00,,,0.00,0,WeatherCatV1.13B119,2013-07-16 03:38:00,
2013-07-15 23:43:00,82.6,74.6,30.10,WNW,299,0.0,0.0,77,0.00,,,0.00,0,WeatherCatV1.13B119,2013-07-16 03:43:00,
2013-07-15 23:48:00,82.5,74.5,30.10,NW,309,2.0,2.0,77,0.00,,,0.00,0,WeatherCatV1.13B119,2013-07-16 03:48:00,
2013-07-15 23:53:00,82.4,74.4,30.11,NW,314,0.0,2.0,77,0.00,,,0.00,0,WeatherCatV1.13B119,2013-07-16 03:53:00,
2013-07-15 23:58:00,82.3,74.3,30.10,NW,312,0.0,0.0,77,0.00,,,0.00,0,WeatherCatV1.13B119,2013-07-16 03:58:00,